Location: Granada
(37.1830°N, 3.6000°W)
Time: 08:36:58
(UTC+02:00)

Iridium 70 - Visible Passes

Search period start: 30 March 2017 00:00
Search period end: 09 April 2017 00:00
Orbit: 776 x 779 km, 86.4° (Epoch: 28 March)

Date Brightness Start Highest point End Pass type
(mag) Time Alt. Az. Time Alt. Az. Time Alt. Az.
30 Mar 8.0 05:56:29 10° SE 06:00:20 21° E 06:04:12 10° NNE visible
30 Mar 6.0 07:35:56 10° SSW 07:40:44 38° W 07:45:35 10° NNW visible
31 Mar 8.6 05:25:50 10° E 05:27:10 11° ENE 05:28:31 10° ENE visible
31 Mar 5.5 07:01:57 10° S 07:07:08 73° W 07:12:22 10° N visible
01 Apr 6.1 06:28:34 10° SSE 06:33:39 59° E 06:38:47 10° N visible
02 Apr 7.3 05:55:46 10° SE 06:00:18 31° E 06:04:50 10° NNE visible
03 Apr 8.2 05:23:51 10° ESE 05:27:03 17° E 05:30:15 10° NE visible
03 Apr 5.7 07:02:16 10° SSW 07:07:17 49° W 07:12:20 10° N visible
04 Apr 5.5 06:28:32 10° S 06:33:44 87° E 06:38:58 10° N visible
05 Apr 6.5 05:55:22 10° SSE 06:00:18 45° E 06:05:15 10° NNE visible
06 Apr 7.6 05:22:51 10° SE 05:26:59 24° E 05:31:06 10° NNE visible
06 Apr 6.2 07:02:49 10° SW 07:07:28 33° W 07:12:10 10° NNW visible
07 Apr 8.3 04:51:34 10° ESE 04:53:47 13° ENE 04:56:00 10° NE visible
07 Apr 5.5 06:28:42 10° SSW 06:33:51 63° W 06:39:02 10° N visible
08 Apr 5.8 05:55:39 13° S 06:00:21 68° E 06:05:32 10° N visible
